EW1065 Weather Reports


time (UTC)temp
C
wind
direction
speed
KPH
gust
KPH
rain 1hr
cm
rain 24hr
cm
rain mn
cm
humidity
%
barometer
mb
20260905224519 31 0.0 0.0 0.00 1.37 1.37 76 1012.0
20260905223559 32 0.0 0.0 0.00 1.37 1.37 71 1011.7
20260905222519 34 0.0 0.0 0.00 1.37 1.37 63 1011.7
20260905221519 34 0.0 0.0 0.00 1.37 1.37 60 1012.0
20260905220519 35 0.0 0.0 0.00 1.37 1.37 60 1012.0
20260905215519 35 0.0 3.2 0.00 1.37 1.37 53 1011.9
20260905214519 36 0.0 0.0 0.00 1.37 1.37 54 1012.0
20260905213519 35 0.0 1.6 0.00 1.37 1.37 55 1012.1
20260905212519 35 0.0 4.8 0.00 1.37 1.37 52 1012.0
20260905211519 35 0.0 1.6 0.00 1.37 1.37 53 1012.0
20260905210559 35 225 1.6 4.8 0.00 1.37 1.37 52 1012.1
20260905205519 35 0.0 1.6 0.00 1.37 1.37 51 1012.2
20260905204519 35 0.0 1.6 0.00 1.37 1.37 53 1012.2
20260905203559 35 23 1.6 6.4 0.00 1.37 1.37 55 1012.4
20260905202519 35 0.0 1.6 0.00 1.37 1.37 55 1012.4
20260905201519 35 338 1.6 4.8 0.00 1.37 1.37 55 1012.6
20260905200559 35 0.0 4.8 0.00 1.37 1.37 52 1012.8
20260905195519 35 0.0 1.6 0.00 1.37 1.37 55 1012.9
20260905194519 35 225 1.6 3.2 0.00 1.37 1.37 55 1013.0
20260905193520 35 0.0 1.6 0.00 1.37 1.37 52 1013.1
20260905192519 35 0.0 1.6 0.00 1.37 1.37 52 1013.4
20260905191559 35 0.0 4.8 0.00 1.37 1.37 52 1013.5
20260905190519 34 0.0 3.2 0.00 1.37 1.37 51 1013.7
20260905185519 34 0.0 1.6 0.00 1.37 1.37 51 1013.7
20260905184559 34 248 1.6 4.8 0.00 1.37 1.37 54 1013.8
20260905183559 34 0.0 3.2 0.00 1.37 1.37 56 1013.8
20260905182519 33 0.0 1.6 0.00 1.37 1.37 58 1013.8
20260905181519 33 0.0 3.2 0.00 1.37 1.37 53 1014.1
20260905180519 33 0.0 3.2 0.00 1.37 1.37 54 1014.2
20260905175519 33 0.0 3.2 0.00 1.37 1.37 56 1014.3
20260905174519 32 0.0 4.8 0.00 1.37 1.37 54 1014.4
20260905173519 32 248 1.6 4.8 0.00 1.37 1.37 59 1014.5
20260905172519 32 0.0 3.2 0.00 1.37 1.37 57 1014.6
20260905171519 32 0.0 3.2 0.00 1.37 1.37 58 1014.6
20260905170519 31 0.0 1.6 0.00 1.37 1.37 60 1014.6
20260905165600 31 0.0 6.4 0.00 1.37 1.37 59 1014.8
20260905164519 31 0.0 3.2 0.00 1.37 1.37 61 1015.1
20260905163519 31 0.0 3.2 0.00 1.37 1.37 62 1015.2
20260905162519 30 0.0 1.6 0.00 1.37 1.37 63 1015.4
20260905161519 30 0.0 0.0 0.00 1.37 1.37 64 1015.0
20260905160519 29 0.0 4.8 0.00 1.37 1.37 70 1015.1
20260905155559 28 0.0 1.6 0.00 1.37 1.37 71 1015.0
20260905154559 28 270 1.6 6.4 0.00 1.37 1.37 71 1015.2
20260905153519 28 0.0 1.6 0.00 1.37 1.37 74 1015.1
20260905152519 27 225 1.6 6.4 0.00 1.37 1.37 75 1015.1
20260905151519 27 0.0 1.6 0.00 1.37 1.37 79 1015.1
20260905150519 26 0.0 1.6 0.00 1.37 1.37 81 1015.1
20260905145519 26 158 1.6 6.4 0.00 1.37 1.37 82 1015.1
20260905144559 25 0.0 1.6 0.00 1.37 1.37 86 1015.2
20260905143519 24 0.0 1.6 0.00 1.37 1.37 90 1015.4
20260905142519 23 0.0 1.6 0.00 1.37 1.37 94 1015.5
20260905141519 23 0.0 3.2 0.00 1.37 1.37 96 1015.8
20260905140519 22 0.0 3.2 0.00 1.37 1.37 97 1015.8
20260905135519 22 0.0 1.6 0.00 1.37 1.37 98 1015.7
20260905134559 22 0.0 1.6 0.00 1.37 1.37 98 1015.6
20260905133519 22 0.0 4.8 0.00 1.37 1.37 98 1015.8
20260905132519 22 0.0 3.2 0.00 1.37 1.37 99 1016.2
20260905131559 22 0.0 3.2 0.00 1.37 1.37 99 1016.2
20260905130519 22 0.0 1.6 0.00 1.37 1.37 99 1016.5
20260905125519 21 0.0 1.6 0.00 1.37 1.37 99 1016.1
20260905124559 21 0.0 1.6 0.08 1.37 1.37 99 1016.1
20260905123519 22 0.0 1.6 0.33 1.37 1.37 99 1016.1
20260905122519 22 0.0 6.4 0.33 1.37 1.37 99 1016.0
20260905121519 22 293 1.6 8.0 0.33 1.37 1.37 99 1015.9
20260905120519 22 0.0 0.0 0.33 1.37 1.37 99 1014.7
20260905115519 22 0.0 1.6 0.33 1.37 1.37 99 1014.4
20260905114519 22 0.0 3.2 0.25 1.30 1.30 99 1015.2
20260905113519 22 0.0 0.0 0.00 1.04 1.04 99 1015.1
20260905112519 22 0.0 1.6 0.00 1.04 1.04 99 1014.8
20260905111519 22 0.0 3.2 0.00 1.04 1.04 99 1014.8
20260905110559 22 0.0 1.6 0.00 1.04 1.04 99 1015.1
20260905105519 22 0.0 0.0 0.00 1.04 1.04 99 1014.9
20260905104520 22 0.0 0.0 0.00 1.04 1.04 99 1014.8
20260905103519 22 0.0 0.0 0.00 1.04 1.04 98 1015.0
20260905102519 22 0.0 0.0 0.18 1.04 1.04 98 1014.5
20260905101519 23 0.0 0.0 0.76 1.04 1.04 98 1014.3
20260905100519 23 0.0 1.6 1.04 1.04 1.04 98 1014.1
20260905095519 23 0.0 0.0 1.04 1.04 1.04 97 1014.2
20260905094519 23 0.0 0.0 1.04 1.04 1.04 96 1014.0
20260905093519 23 0.0 6.4 1.04 1.04 1.04 95 1013.9
20260905092601 23 45 3.2 16.1 0.86 0.86 0.86 95 1014.6
20260905091519 24 248 3.2 14.5 0.28 0.28 0.30 98 1014.7
20260905090519 23 0.0 0.0 0.00 0.00 0.00 98 1013.6
20260905085519 23 0.0 0.0 0.00 0.00 0.00 99 1013.9
20260905084519 23 0.0 3.2 0.00 0.00 0.00 99 1014.1
20260905083519 23 0.0 0.0 0.00 0.00 0.00 99 1013.6
20260905082559 23 0.0 0.0 0.00 0.00 0.00 99 1013.8
20260905081519 23 0.0 0.0 0.00 0.00 0.00 98 1013.8
20260905080519 23 0.0 0.0 0.00 0.00 0.00 98 1013.6
20260905075519 23 0.0 0.0 0.00 0.00 0.00 98 1013.4
20260905074519 23 0.0 0.0 0.00 0.00 0.00 98 1013.7
20260905073519 23 0.0 0.0 0.00 0.00 0.00 98 1013.7
20260905072519 23 0.0 0.0 0.00 0.00 0.00 98 1013.9
20260905071519 23 0.0 0.0 0.00 0.00 0.00 98 1014.1
20260905070559 23 0.0 0.0 0.00 0.00 0.00 98 1014.0
20260905065519 23 0.0 0.0 0.00 0.00 0.00 98 1014.3
20260905064519 23 0.0 0.0 0.00 0.00 0.00 98 1014.3
20260905063522 23 0.0 0.0 0.00 0.00 0.00 98 1014.4
20260905062519 23 0.0 0.0 0.00 0.00 0.00 98 1014.6
20260905061519 23 0.0 0.0 0.00 0.00 0.00 97 1014.7
20260905060519 23 0.0 0.0 0.00 0.00 0.00 97 1014.9
20260905055600 23 0.0 0.0 0.00 0.00 0.00 97 1014.9
20260905054519 23 0.0 0.0 0.00 0.00 0.00 97 1014.9
20260905053519 23 0.0 0.0 0.00 0.00 0.00 97 1014.8
20260905052519 23 0.0 0.0 0.00 0.00 0.00 97 1014.9
20260905051519 23 0.0 0.0 0.00 0.00 0.00 97 1014.9
20260905050520 23 0.0 0.0 0.00 0.00 0.00 96 1014.9
20260905045519 24 0.0 0.0 0.00 0.00 0.00 96 1014.9
20260905044519 24 0.0 0.0 0.00 0.00 0.00 96 1015.1
20260905043519 24 0.0 0.0 0.00 0.00 0.00 96 1015.1
20260905042520 24 0.0 0.0 0.00 0.00 0.00 96 1015.1
20260905041559 24 0.0 0.0 0.00 0.00 0.00 96 1015.2
20260905040519 24 0.0 0.0 0.00 0.00 0.00 95 1015.0
20260905035519 24 0.0 0.0 0.00 0.00 0.00 95 1015.1
20260905034519 25 0.0 0.0 0.00 0.00 0.00 95 1015.0
20260905033519 25 0.0 0.0 0.00 0.00 0.00 95 1015.1
20260905032519 25 0.0 0.0 0.00 0.00 0.00 95 1015.0
20260905031519 25 0.0 0.0 0.00 0.00 0.00 95 1015.1
20260905030520 25 0.0 0.0 0.00 0.00 0.00 95 1015.0
20260905025519 25 0.0 0.0 0.00 0.00 0.00 94 1015.1
20260905024519 25 0.0 0.0 0.00 0.00 0.00 94 1015.1
20260905023519 25 0.0 0.0 0.00 0.00 0.00 94 1015.0
20260905021519 25 0.0 0.0 0.00 0.00 0.00 94 1014.8
20260905020600 25 0.0 0.0 0.00 0.00 0.00 93 1014.7
20260905015519 26 0.0 0.0 0.00 0.00 0.00 93 1014.7
20260905014600 26 0.0 0.0 0.00 0.00 0.00 92 1014.5
20260905013520 26 0.0 0.0 0.00 0.00 0.00 92 1014.5
20260905012519 26 0.0 0.0 0.00 0.00 0.00 92 1014.3
20260905011519 26 0.0 0.0 0.00 0.00 0.00 91 1014.1
20260905010519 26 0.0 0.0 0.00 0.00 0.00 90 1014.1
20260905005519 27 0.0 0.0 0.00 0.00 0.00 90 1013.9
20260905004520 27 0.0 0.0 0.00 0.00 0.00 89 1013.8
20260905003519 27 0.0 0.0 0.00 0.00 0.00 88 1013.7
20260905002519 27 0.0 0.0 0.00 0.00 0.00 86 1013.7
20260905001519 28 0.0 0.0 0.00 0.00 0.00 85 1013.5
20260905000520 28 0.0 0.0 0.00 0.00 0.00 84 1013.6
20260904235519 29 0.0 0.0 0.00 0.00 0.00 82 1013.6
20260904234519 30 0.0 0.0 0.00 0.00 0.00 79 1013.6
20260904233519 31 0.0 0.0 0.00 0.00 0.00 76 1013.6
20260904232519 31 0.0 0.0 0.00 0.00 0.00 75 1013.6
20260904231519 32 0.0 0.0 0.00 0.00 0.00 73 1013.8
20260904230639 33 0.0 0.0 0.00 0.00 0.00 70 1013.9
20260904225520 34 0.0 0.0 0.00 0.00 0.00 65 1014.1